This is the latest recevied weather packets stored in our database for station/object W4SNA-3. If no packets are shown the sender has not sent any weather packets the latest 1 day(s).
| Time | Temp. | Humidity | Pressure | Rain* | Wind** | Luminosity | Snow |
|---|---|---|---|---|---|---|---|
| 1778001899 | 21.11° C | 51% | 1013.8 hPa | 0 mm | 0 m/s | - | - |
| 1778001599 | 21.11° C | 48% | 1013.9 hPa | 0 mm | 0 m/s | - | - |
| 1778001299 | 21.11° C | 50% | 1013.9 hPa | 0 mm | 0 m/s | - | - |
| 1778000999 | 21.11° C | 55% | 1013.9 hPa | 0 mm | 0 m/s | - | - |
| 1778000699 | 21.11° C | 50% | 1014.1 hPa | 0 mm | 0 m/s | - | - |
| 1778000407 | 21.11° C | 52% | 1014.2 hPa | 0 mm | 0 m/s | - | - |
| 1778000099 | 21.11° C | 50% | 1014.3 hPa | 0 mm | 0 m/s | - | - |
| 1777999799 | 21.11° C | 53% | 1014.2 hPa | 0 mm | 0 m/s | - | - |
| 1777999503 | 21.11° C | 53% | 1014.2 hPa | 0 mm | 0 m/s | - | - |
| 1777999199 | 21.11° C | 58% | 1014.2 hPa | 0 mm | 0 m/s | - | - |
| 1777998899 | 21.11° C | 55% | 1014.4 hPa | 0 mm | 0 m/s | - | - |
| 1777998606 | 21.11° C | 53% | 1014.5 hPa | 0 mm | 0 m/s | - | - |
| 1777998325 | 21.67° C | 56% | 1014.6 hPa | 0 mm | 0 m/s | - | - |
| 1777997999 | 21.11° C | 56% | 1014.6 hPa | 0 mm | 0 m/s | - | - |
| 1777997699 | 21.11° C | 52% | 1014.6 hPa | 0 mm | 0 m/s | - | - |
| 1777997399 | 21.11° C | 55% | 1014.5 hPa | 0 mm | 0 m/s | - | - |
| 1777997099 | 21.11° C | 54% | 1014.6 hPa | 0 mm | 0 m/s | - | - |
| 1777996799 | 21.11° C | 54% | 1014.7 hPa | 0 mm | 0 m/s | - | - |
| 1777996499 | 21.11° C | 54% | 1014.6 hPa | 0 mm | 0 m/s | - | - |
| 1777996199 | 21.11° C | 55% | 1014.6 hPa | 0 mm | 0 m/s | - | - |
| 1777995899 | 21.11° C | 52% | 1014.6 hPa | 0 mm | 0 m/s | - | - |
| 1777995599 | 21.67° C | 52% | 1014.6 hPa | 0 mm | 0 m/s | - | - |
| 1777995303 | 21.67° C | 53% | 1014.6 hPa | 0 mm | 0 m/s | - | - |
| 1777995018 | 21.11° C | 55% | 1014.7 hPa | 0 mm | 0 m/s | - | - |
| 1777994699 | 21.11° C | 55% | 1014.9 hPa | 0 mm | 0 m/s | - | - |
* Rain latest hour (hover to see other rain measurements)
** Current wind speed in m/s (hover to see current wind gust speed)